Location: Morgantown
(40.9734°N, 80.6323°W)
Time: 21:11:57
(UTC+00:00)

Tianhe-1 - Visible Passes

Search period start: 19 June 2021 00:00
Search period end: 29 June 2021 00:00
Orbit: 375 x 386 km, 41.5° (Epoch: 19 June)

Date Brightness Start Highest point End Pass type
(mag) Time Alt. Az. Time Alt. Az. Time Alt. Az.
19 Jun 3.0 08:24:12 16° S 08:25:11 18° SSE 08:27:24 10° ESE visible
20 Jun 1.6 08:58:01 13° SW 09:00:40 44° SSE 09:03:42 10° E visible
21 Jun 2.2 07:59:42 28° SSE 07:59:48 28° SSE 08:02:33 10° E visible
22 Jun 1.1 08:33:26 21° WSW 08:35:22 64° SSE 08:38:30 10° E visible
23 Jun 2.0 07:35:04 36° SE 07:35:04 36° SE 07:37:26 10° E visible
23 Jun 1.1 09:07:56 10° W 09:11:05 82° N 09:14:15 10° E visible
24 Jun 0.9 08:08:47 33° WSW 08:10:04 85° SSE 08:13:14 10° E visible
25 Jun 2.6 07:10:25 29° E 07:10:25 29° E 07:12:10 10° E visible
25 Jun 1.1 08:42:40 10° W 08:45:48 79° N 08:48:58 10° E visible
26 Jun 1.0 07:44:12 57° W 07:44:45 82° N 07:47:54 10° E visible
27 Jun 3.5 06:45:57 17° E 06:45:57 17° E 06:46:50 10° E visible
27 Jun 1.0 08:18:04 16° W 08:20:29 85° N 08:23:38 10° E visible
28 Jun 1.6 07:19:58 56° ENE 07:19:58 56° ENE 07:22:33 10° E visible
28 Jun 1.1 08:53:03 10° W 08:56:08 57° SSW 08:59:13 10° ESE visible
